Starlink 30082

operational
NORAD ID: 57509 Int'l Des: 2023-113 Owner: SPXS Country: US Constellation: starlink
LEOCIRCULAR

About Starlink 30082

Description loading...

Live Position

Loading 3D Globe...

Upcoming Passes

Altitude History

Altitude vs Time

uPlot chart will show altitude changes over time

Two-Line Element Set

1 57509U 23113Q 25306.49892949 .00000499 00000-0 51997-4 0 9993
2 57509 43.0023 348.7809 0001278 271.0683 89.0013 15.02535376124526
Epoch: Nov 2, 2025 • Age: 14 hours

Current Status

Altitude 559.9 km
Velocity 7.58 km/s
Sub-Earth Point -6.77°S, 106.71°E
Launch Date Aug 7, 2023
Age 2.2 years
Type internet

Technical Details

Classification Payload
Mass 730.00 kg
Dry Mass 700.00 kg
Total Mass 730.00 kg
Length 0.30 m
Diameter 4.10 m
Span 29.00 m
Shape Box + pan
Manufacturer SPXS
Bus Type Starlink V2M
Phase Status In Orbit
Owner/State SPXS/US

Large Constellations

Loading constellations...